Weather History for KSFY - January, 2013

Change the Weather History Date:

Monday, January 14, 2013

  Actual Average (KCWI) Record (KCWI)
Temperature  
Mean Temperature 14 °F -  
Max Temperature 26 °F 28 °F 50 °F (1952)
Min Temperature 3 °F 13 °F -18 °F (1957)
Degree Days  
Heating Degree Days 50    
Moisture  
Dew Point 7 °F    
Average Humidity 75    
Maximum Humidity 90    
Minimum Humidity 50    
Precipitation  
Precipitation 0.00 in - - ()
Sea Level Pressure  
Sea Level Pressure 30.41 in    
Wind  
Wind Speed 4 mph (SW)    
Max Wind Speed 8 mph    
Max Gust Speed -    
Visibility 10 miles    
Events      
Averages and records for this station are not official NWS values.
T = Trace of Precipitation, MM = Missing Value Source: NWS Daily Summary

Daily Weather History Graph

Daily Weather History Graph

Search for Another Location

Airport or City:

Trip Planner

Search our weather history database for the weather conditions in past years. The results will help you decide how hot, cold, wet, or windy it might be!

Date:

Astronomy

Jan. 14, 2013 Rise Set
Actual Time 7:26 AM CST 4:53 PM CST
Civil Twilight 6:55 AM CST 5:24 PM CST
Nautical Twilight 6:20 AM CST 5:58 PM CST
Astronomical Twilight 5:47 AM CST 6:32 PM CST
Moon 8:56 AM CST (1/14) 8:43 PM CST (1/14)
Length of Visible Light 10h 28m
Length of Day
9h 26m
Waxing Crescent, 11% of the Moon is Illuminated
Jan 14
Waxing Crescent
Jan 18
First Quarter
Jan 26
Full
Feb 3
Last Quarter
Feb 10
New

Hourly Weather History & Observations

Time (CST) Temp. Windchill Dew Point Humidity Pressure Visibility Wind Dir Wind Speed Gust Speed Precip Events Conditions
12:15 AM 12.6 °F 1.1 °F 6.1 °F 75% 30.28 in 10.0 mi West 8.1 mph - N/A   Clear
12:35 AM 12.2 °F 1.7 °F 5.9 °F 76% 30.28 in 10.0 mi WNW 6.9 mph - N/A   Clear
12:55 AM 12.2 °F 0.7 °F 5.9 °F 76% 30.29 in 10.0 mi WNW 8.1 mph - N/A   Clear
1:15 AM 12.0 °F 4.1 °F 5.9 °F 76% 30.30 in 10.0 mi West 4.6 mph - N/A   Clear
1:35 AM 11.8 °F 3.9 °F 5.9 °F 77% 30.30 in 10.0 mi WNW 4.6 mph - N/A   Clear
1:55 AM 10.4 °F 4.0 °F 5.0 °F 79% 30.31 in 10.0 mi NW 3.5 mph - N/A   Clear
2:15 AM 11.1 °F - 5.9 °F 80% 30.32 in 10.0 mi Calm Calm - N/A   Clear
2:35 AM 10.9 °F 4.7 °F 5.7 °F 79% 30.32 in 10.0 mi WNW 3.5 mph - N/A   Clear
2:55 AM 10.9 °F - 5.9 °F 80% 30.34 in 10.0 mi Calm Calm - N/A   Clear
3:35 AM 10.4 °F 4.0 °F 5.9 °F 82% 30.36 in 10.0 mi SW 3.5 mph - N/A   Clear
4:15 AM 8.4 °F -0.1 °F 4.3 °F 83% 30.39 in 10.0 mi SW 4.6 mph - N/A   Clear
4:35 AM 9.3 °F -0.5 °F 5.2 °F 83% 30.39 in 10.0 mi SSW 5.8 mph - N/A   Clear
4:55 AM 9.3 °F - 5.4 °F 84% 30.40 in 10.0 mi Calm Calm - N/A   Clear
5:15 AM 9.3 °F - 5.7 °F 85% 30.40 in 10.0 mi Calm Calm - N/A   Clear
5:55 AM 7.7 °F - 4.6 °F 87% 30.43 in 10.0 mi Calm Calm - N/A   Clear
6:15 AM 4.8 °F -2.3 °F 1.2 °F 85% 30.44 in 10.0 mi SSE 3.5 mph - N/A   Clear
6:35 AM 3.2 °F -4.2 °F 0.1 °F 87% 30.45 in 10.0 mi SW 3.5 mph - N/A   Clear
6:55 AM 7.7 °F - 4.5 °F 87% 30.45 in 10.0 mi Calm Calm - N/A   Clear
7:15 AM 4.1 °F - 0.9 °F 86% 30.45 in 10.0 mi Calm Calm - N/A   Clear
7:35 AM 3.6 °F - 0.9 °F 89% 30.45 in 10.0 mi Calm Calm - N/A   Clear
7:55 AM 4.5 °F - 1.6 °F 88% 30.46 in 10.0 mi Calm Calm - N/A   Clear
8:15 AM 5.7 °F - 2.8 °F 88% 30.46 in 10.0 mi Calm Calm - N/A   Clear
8:35 AM 8.2 °F - 5.0 °F 87% 30.46 in 10.0 mi Calm Calm - N/A   Clear
8:55 AM 9.9 °F - 6.1 °F 85% 30.46 in 10.0 mi Calm Calm - N/A   Clear
9:15 AM 12.2 °F 6.1 °F 6.4 °F 78% 30.45 in 10.0 mi WNW 3.5 mph - N/A   Clear
9:35 AM 13.5 °F 5.8 °F 7.0 °F 75% 30.44 in 10.0 mi WNW 4.6 mph - N/A   Clear
9:55 AM 14.0 °F 6.5 °F 6.6 °F 72% 30.44 in 10.0 mi WNW 4.6 mph - N/A   Clear
10:15 AM 14.9 °F 7.5 °F 7.5 °F 73% 30.44 in 10.0 mi WNW 4.6 mph - N/A   Clear
10:35 AM 16.5 °F 9.4 °F 8.4 °F 70% 30.46 in 10.0 mi WSW 4.6 mph - N/A   Clear
10:55 AM 16.9 °F 11.5 °F 7.5 °F 67% 30.46 in 10.0 mi WSW 3.5 mph - N/A   Clear
11:15 AM 18.9 °F 13.7 °F 9.3 °F 66% 30.46 in 10.0 mi South 3.5 mph - N/A   Clear
11:35 AM 19.4 °F 12.8 °F 8.2 °F 62% 30.45 in 10.0 mi WSW 4.6 mph - N/A   Clear
11:55 AM 20.1 °F 12.3 °F 8.4 °F 61% 30.44 in 10.0 mi WNW 5.8 mph - N/A   Clear
12:15 PM 20.8 °F 14.4 °F 9.3 °F 61% 30.44 in 10.0 mi WNW 4.6 mph - N/A   Clear
12:35 PM 21.7 °F 13.2 °F 10.2 °F 61% 30.43 in 10.0 mi West 6.9 mph - N/A   Clear
12:55 PM 23.0 °F 15.8 °F 10.9 °F 60% 30.43 in 10.0 mi WSW 5.8 mph - N/A   Clear
1:15 PM 23.9 °F 19.5 °F 9.5 °F 54% 30.42 in 10.0 mi West 3.5 mph - N/A   Clear
1:35 PM 24.1 °F 18.2 °F 9.7 °F 54% 30.42 in 10.0 mi West 4.6 mph - N/A   Clear
1:55 PM 24.8 °F 20.5 °F 9.9 °F 53% 30.42 in 10.0 mi West 3.5 mph - N/A   Clear
2:15 PM 25.3 °F 21.1 °F 9.9 °F 52% 30.42 in 10.0 mi SW 3.5 mph - N/A   Clear
2:35 PM 25.9 °F 21.7 °F 10.4 °F 52% 30.43 in 10.0 mi SW 3.5 mph - N/A   Clear
2:55 PM 26.2 °F 22.1 °F 10.0 °F 50% 30.43 in 10.0 mi SW 3.5 mph - N/A   Clear
3:15 PM 26.1 °F 21.9 °F 10.4 °F 52% 30.43 in 10.0 mi South 3.5 mph - N/A   Clear
3:35 PM 26.2 °F 22.1 °F 11.1 °F 53% 30.43 in 10.0 mi South 3.5 mph - N/A   Clear
3:55 PM 25.0 °F 16.3 °F 12.6 °F 59% 30.42 in 10.0 mi SSE 8.1 mph - N/A   Clear
4:15 PM 23.7 °F 17.8 °F 13.8 °F 66% 30.43 in 10.0 mi South 4.6 mph - N/A   Clear
4:35 PM 22.1 °F 14.7 °F 11.8 °F 65% 30.43 in 10.0 mi South 5.8 mph - N/A   Clear
4:55 PM 19.2 °F 10.2 °F 11.3 °F 71% 30.42 in 10.0 mi SSE 6.9 mph - N/A   Clear
5:15 PM 18.5 °F 10.4 °F 11.1 °F 73% 30.42 in 10.0 mi SSE 5.8 mph - N/A   Clear
5:35 PM 16.9 °F 7.4 °F 10.4 °F 76% 30.42 in 10.0 mi South 6.9 mph - N/A   Clear
5:55 PM 15.3 °F 6.6 °F 9.7 °F 79% 30.43 in 10.0 mi South 5.8 mph - N/A   Clear
6:15 PM 14.0 °F 5.1 °F 9.1 °F 81% 30.43 in 10.0 mi SSE 5.8 mph - N/A   Clear
6:35 PM 14.4 °F 4.3 °F 9.3 °F 80% 30.43 in 10.0 mi SSE 6.9 mph - N/A   Clear
6:55 PM 13.6 °F 4.6 °F 8.6 °F 80% 30.44 in 10.0 mi SSE 5.8 mph - N/A   Clear
7:15 PM 12.6 °F 4.8 °F 8.4 °F 83% 30.43 in 10.0 mi SSE 4.6 mph - N/A   Clear
7:35 PM 12.2 °F 6.1 °F 7.7 °F 82% 30.43 in 10.0 mi South 3.5 mph - N/A   Clear
7:55 PM 13.3 °F 7.3 °F 8.6 °F 82% 30.43 in 10.0 mi SSE 3.5 mph - N/A   Clear
8:15 PM 12.6 °F 6.5 °F 7.7 °F 81% 30.43 in 10.0 mi SSE 3.5 mph - N/A   Clear
8:35 PM 12.7 °F 5.0 °F 7.9 °F 81% 30.42 in 10.0 mi SE 4.6 mph - N/A   Clear
8:55 PM 14.0 °F 6.5 °F 9.1 °F 81% 30.42 in 10.0 mi SSE 4.6 mph - N/A   Clear
9:15 PM 12.6 °F - 8.4 °F 83% 30.42 in 10.0 mi Calm Calm - N/A   Clear
9:35 PM 12.0 °F 5.9 °F 7.7 °F 83% 30.42 in 10.0 mi ESE 3.5 mph - N/A   Clear
9:55 PM 12.9 °F 5.2 °F 8.6 °F 83% 30.41 in 10.0 mi SE 4.6 mph - N/A   Clear
10:15 PM 12.6 °F 4.8 °F 8.1 °F 82% 30.41 in 10.0 mi SSE 4.6 mph - N/A   Clear
10:35 PM 12.9 °F - 8.2 °F 82% 30.42 in 10.0 mi Calm Calm - N/A   Clear
10:55 PM 12.2 °F - 8.1 °F 83% 30.42 in 10.0 mi Calm Calm - N/A   Clear
11:15 PM 11.8 °F - 7.5 °F 83% 30.43 in 10.0 mi Calm Calm - N/A   Clear
11:35 PM 10.2 °F - 7.5 °F 89% 30.43 in 10.0 mi Calm Calm - N/A   Clear
11:55 PM 10.2 °F 3.8 °F 7.9 °F 90% 30.43 in 10.0 mi SE 3.5 mph - N/A   Clear